Weather Roundup
Issued by NWS Chicago, IL

Home | Current Version | Previous Version | Graphics & Text | Print | Product List | Glossary On
Versions: 1 2 3 4 5 6 7 8 9 10 11 12 13 14 15 16 17 18 19 20 21 22 23 24 25 26 27 28 29 30 31 32 33 34 35 36 37 38 39 40 41 42 43 44 45 46 47 48 49 50
967
NZUS59 KLOT 270609
HRRLOT

CHICAGO AREA WEATHER ROUNDUP
NATIONAL WEATHER SERVICE CHICAGO/ROMEOVILLE IL
100 AM CDT TUE JUN 27 2017

NOTE: "FAIR" INDICATES FEW OR NO CLOUDS BELOW 12,000 FEET WITH NO
SIGNIFICANT WEATHER AND/OR OBSTRUCTIONS TO VISIBILITY.

* THESE STATIONS ARE NOT UNDER NWS QUALITY CONTROL. THEY ALSO MAY NOT
  REPORT WEATHER SUCH AS PRECIPITATION OR FOG.

ILZ005-006-012>014-019>023-270700-
NORTHEAST ILLINOIS

CITY           SKY/WX    TMP DP  RH WIND       PRES   REMARKS
OHARE          CLEAR     57  45  64 NW7       30.10R
6HR MIN TEMP:  57; 6HR MAX TEMP:  68;

MIDWAY         CLEAR     58  46  64 NW7       30.10S
6HR MIN TEMP:  58; 6HR MAX TEMP:  68;

AURORA         CLEAR     50  46  86 W5        30.12S
6HR MIN TEMP:  50; 6HR MAX TEMP:  67;

LANSING*       CLEAR     55  44  64 W3        30.11S
JOLIET*        CLEAR     51  48  89 CALM      30.12S
WAUKEGAN       CLEAR     52  48  86 VRB3      30.09S
6HR MIN TEMP:  51; 6HR MAX TEMP:  63;

DUPAGE AIRPORT CLEAR     53  47  79 CALM      30.11R
6HR MIN TEMP:  53; 6HR MAX TEMP:  66;

WHEELING       CLEAR     53  47  79 NW5       30.11S
6HR MIN TEMP:  53; 6HR MAX TEMP:  65;

MORRIS*        CLEAR     53  45  72 W5        30.11S
LEWIS AIRPORT* CLEAR     55  44  65 W3        30.11S
NORTHERLY ISL    N/A     61  45  55 W3          N/A
$$

WIZ051-052-058>065-066-070>072-270700-
SOUTHEAST WISCONSIN

CITY           SKY/WX    TMP DP  RH WIND       PRES   REMARKS
MILWAUKEE      CLEAR     57  49  74 W5        30.09R
6HR MIN TEMP:  57; 6HR MAX TEMP:  66; 6HR PCP: TRACE;

KENOSHA*       CLEAR     49  44  83 W3        30.10R
RACINE*        CLEAR     53  47  79 W3        30.10S
WAUKESHA       CLEAR     48  45  87 SW3       30.10S
WEST BEND      CLEAR     46  46 100 CALM      30.08S
$$

INZ001>003-010>013-019-020-270700-
NORTHWEST INDIANA

CITY           SKY/WX    TMP DP  RH WIND       PRES   REMARKS
GARY*          CLEAR     54  45  72 W5        30.10S
6HR MIN TEMP:  54; 6HR MAX TEMP:  65;

MICHIGAN CITY* NOT AVBL
RENSSELAER*    NOT AVBL
VALPARAISO     CLEAR     54  48  80 CALM      30.09S
$$

LMZ740>746-270700-
SOUTHERN LAKE MICHIGAN

STATION/POSITION TIME  SKY/WX   TEMP WIND        PRES    VSBY
                                AIR  DIR/SP/G
                 (UTC)          (F)  (DEG/KT/KT) (MB)    (MI)
HARRISON CRIB    0540            62  310/ 11/ 12   N/A
BURNHAM HARBOR   0600            61                N/A
CALUMET HARBOR   0548            59  270/  2/  5 1018.7R
BURNS HARBOR     0540            63  320/ 14/ 18 1019.3R
MICHIGAN CITY    0540            61  330/ 17/ 19   N/A
$$

ABBREVIATIONS USED IN REMARKS
   TC - TEMPERATURE IN CELSIUS
  WCI - WIND CHILL INDEX
   HX - HEAT INDEX
  VSB - VISIBILITY
$$




USA.gov is the U.S. government's official web portal to all federal, state and local government web resources and services.